TimeMST,TemperatureF,Dew PointF,Humidity,Sea Level PressureIn,VisibilityMPH,Wind Direction,Wind SpeedMPH,Gust SpeedMPH,PrecipitationIn,Events,Conditions,WindDirDegrees,DateUTC
12:55 AM,77.0,46.0,33,29.83,10.0,South,3.5,-,N/A,,Clear,190,2012-10-06 07:55:00
1:55 AM,75.9,45.0,33,29.83,10.0,SSE,3.5,-,N/A,,Clear,150,2012-10-06 08:55:00
2:55 AM,73.9,46.9,38,29.82,10.0,South,6.9,-,N/A,,Clear,170,2012-10-06 09:55:00
3:55 AM,72.0,48.9,44,29.82,10.0,South,5.8,-,N/A,,Clear,190,2012-10-06 10:55:00
4:55 AM,71.1,54.0,55,29.83,10.0,South,4.6,-,N/A,,Partly Cloudy,180,2012-10-06 11:55:00
5:55 AM,71.1,57.9,63,29.83,10.0,SSE,4.6,-,N/A,,Partly Cloudy,160,2012-10-06 12:55:00
6:55 AM,71.1,57.9,63,29.84,10.0,South,3.5,-,N/A,,Mostly Cloudy,170,2012-10-06 13:55:00
7:55 AM,73.0,55.9,55,29.86,9.0,Calm,Calm,-,N/A,,Mostly Cloudy,0,2012-10-06 14:55:00
8:55 AM,78.1,62.1,58,29.86,10.0,SSE,3.5,-,N/A,,Mostly Cloudy,160,2012-10-06 15:55:00
9:55 AM,82.9,63.0,51,29.86,10.0,SSW,4.6,-,N/A,,Mostly Cloudy,200,2012-10-06 16:55:00
10:55 AM,86.0,55.9,36,29.85,10.0,Calm,Calm,-,N/A,,Mostly Cloudy,0,2012-10-06 17:55:00
11:55 AM,88.0,55.0,32,29.84,10.0,WSW,4.6,-,N/A,,Mostly Cloudy,240,2012-10-06 18:55:00
12:55 PM,91.0,46.9,22,29.81,10.0,SW,5.8,-,N/A,,Mostly Cloudy,220,2012-10-06 19:55:00
1:55 PM,93.9,46.0,19,29.78,10.0,Variable,4.6,-,N/A,,Mostly Cloudy,0,2012-10-06 20:55:00
2:55 PM,93.9,45.0,18,29.77,10.0,SW,4.6,-,N/A,,Mostly Cloudy,220,2012-10-06 21:55:00
3:55 PM,96.1,42.1,15,29.75,10.0,West,9.2,-,N/A,,Mostly Cloudy,260,2012-10-06 22:55:00
4:55 PM,93.9,41.0,16,29.74,10.0,South,4.6,-,N/A,,Mostly Cloudy,190,2012-10-06 23:55:00
5:55 PM,93.9,41.0,16,29.74,10.0,SSW,4.6,-,N/A,,Mostly Cloudy,210,2012-10-07 00:55:00
6:55 PM,91.0,44.1,20,29.74,10.0,SSW,3.5,-,N/A,,Mostly Cloudy,200,2012-10-07 01:55:00
7:55 PM,86.0,46.9,26,29.75,10.0,South,3.5,-,N/A,,Mostly Cloudy,180,2012-10-07 02:55:00
8:55 PM,86.0,45.0,24,29.76,10.0,SSW,3.5,-,N/A,,Mostly Cloudy,200,2012-10-07 03:55:00
9:55 PM,82.9,48.9,31,29.78,10.0,WSW,6.9,-,N/A,,Mostly Cloudy,250,2012-10-07 04:55:00
10:55 PM,82.0,51.1,34,29.78,10.0,WSW,5.8,-,N/A,,Mostly Cloudy,240,2012-10-07 05:55:00
11:55 PM,81.0,46.0,29,29.78,10.0,WSW,5.8,-,N/A,,Mostly Cloudy,250,2012-10-07 06:55:00